Погода в Арале

Узбекистан     40°52′35″N   72°30′03″E
темп.,
°C
ветер,
м/с
пор.,
м/с
влажн.,
%
обл.,
%
осадки,
мм/ч
давл.,
гПа
погр.,
м
27 февраля, сб
сб2723:00−2вюв114314 0.0 103360
02:00−2вюв114462 0.0 103128
05:00−2в113981 0.0 103154
08:00−2вюв1239100 0.0 1031183
11:000зюз1132100 0.0 1030617
14:00+2юз2132100 0.0 1029961
17:00+2всв2336100 0.2 1033897
20:00−1св5858100 0.0 1037235
28 февраля, вс
вс2823:00−1св126088 0.0 103744
02:00−1ююз01601 0.0 103621
05:00−2вюв11618 0.0 103521
08:00−1в23520 0.0 1032151
11:00+3ююв11370 0.0 1027549
14:00+6юз01340 0.0 1024696
17:00+6вюв11360 0.0 1025577
20:00+2всв34530 0.0 1028105
1 марта, пн
пн123:00+1в23480 0.0 102868
02:000всв22460 0.0 102725
05:000в224418 0.0 102629
08:00+2в2440100 0.0 1026117
11:00+7вюв222789 0.0 1023409
14:00+11вюв012327 0.0 1022700
17:00+11св112913 0.0 1022419
20:00+6всв33530 0.0 102669
2 марта, вт
вт223:00+4в33440 0.0 102769
02:00+3всв23420 0.0 102746
05:00+3в234042 0.0 102746
08:00+5всв1139100 0.0 102735
11:00+10юв1227100 0.0 1024370
14:00+13юз022296 0.0 1022778
17:00+12зюз122998 0.0 102246
20:00+10св1138100 0.0 102422
3 марта, ср
ср323:00+8всв2345100 0.0 102461
02:00+8всв1245100 0.0 102322
05:00+6в014999 0.0 102222
08:00+7вюв2248100 0.0 102262
11:00+11юз1136100 0.0 1020535
14:00+13ююв2229100 0.0 10181052
17:00+13зюз2230100 0.0 10181027
20:00+10ссз235499 0.0 102140